WD5EAA Weather Reports


Display with metric or nautical units.
time (UTC)temp
F
wind
direction
speed
MPH
gust
MPH
rain 1hr
in
rain 24hr
in
rain mn
in
humidity
%
barometer
mb
20260507144016 47 220 14.0 21.0 0.00 0.28 0.00 52 1017.6
20260507143515 47 233 15.0 18.0 0.00 0.28 0.00 52 1017.7
20260507143032 47 228 14.0 20.0 0.00 0.28 0.00 53 1017.6
20260507142517 46 232 14.0 20.0 0.00 0.28 0.00 53 1017.5
20260507142019 45 228 14.0 19.0 0.00 0.28 0.00 53 1017.6
20260507141533 45 207 16.0 19.0 0.00 0.28 0.00 54 1017.4
20260507141018 44 237 15.0 19.0 0.00 0.28 0.00 54 1017.5
20260507140516 44 241 12.0 15.0 0.00 0.28 0.00 56 1017.5
20260507140041 43 235 9.0 17.0 0.00 0.28 0.00 56 1017.6
20260507135516 43 234 12.0 22.0 0.00 0.28 0.00 54 1017.6
20260507135018 43 235 15.0 24.0 0.00 0.28 0.00 54 1017.5
20260507134532 42 243 19.0 25.0 0.00 0.28 0.00 53 1017.4
20260507134016 42 237 19.0 28.0 0.00 0.28 0.00 53 1017.3
20260507133516 42 236 23.0 28.0 0.00 0.28 0.00 52 1017.2
20260507133034 42 246 20.0 25.0 0.00 0.28 0.00 53 1017.1
20260507132515 41 236 19.0 24.0 0.00 0.28 0.00 52 1017.2
20260507132015 41 242 18.0 22.0 0.00 0.28 0.00 54 1017.2
20260507131603 41 242 17.0 24.0 0.00 0.28 0.00 54 1017.3
20260507131016 40 247 18.0 24.0 0.00 0.28 0.00 55 1017.1
20260507130516 40 246 18.0 25.0 0.00 0.28 0.00 53 1017.1
20260507130029 40 244 19.0 25.0 0.00 0.28 0.00 53 1017.1
20260507125516 40 246 20.0 25.0 0.00 0.28 0.00 52 1017.1
20260507125015 40 246 19.0 24.0 0.00 0.28 0.00 52 1016.9
20260507124532 40 250 18.0 24.0 0.00 0.28 0.00 53 1016.8
20260507124017 39 235 18.0 22.0 0.00 0.28 0.00 55 1016.7
20260507123517 38 235 16.0 24.0 0.00 0.28 0.00 55 1016.6
20260507123041 38 240 16.0 24.0 0.00 0.28 0.00 55 1016.7
20260507122518 38 238 18.0 24.0 0.00 0.28 0.00 54 1016.6
20260507122016 38 237 18.0 25.0 0.00 0.28 0.00 56 1016.5
20260507121532 38 236 18.0 25.0 0.00 0.28 0.00 55 1016.5
20260507121016 38 243 20.0 25.0 0.00 0.28 0.00 55 1016.5
20260507120516 38 238 19.0 24.0 0.00 0.28 0.00 55 1016.5
20260507120035 38 234 18.0 24.0 0.00 0.28 0.00 55 1016.4
20260507115515 38 239 18.0 23.0 0.00 0.28 0.00 55 1016.3
20260507115015 38 234 17.0 25.0 0.00 0.28 0.00 55 1016.4
20260507114533 38 230 18.0 25.0 0.00 0.28 0.00 55 1016.4
20260507114020 38 236 17.0 22.0 0.00 0.28 0.00 54 1016.4
20260507113516 38 238 18.0 23.0 0.00 0.28 0.00 53 1016.4
20260507113059 38 237 18.0 23.0 0.00 0.28 0.00 54 1016.3
20260507112520 37 232 17.0 22.0 0.00 0.28 0.00 55 1016.3
20260507112016 37 236 17.0 22.0 0.00 0.28 0.00 56 1016.3
20260507111532 37 234 16.0 21.0 0.00 0.28 0.00 57 1016.4
20260507111016 37 233 14.0 20.0 0.00 0.28 0.00 57 1016.4
20260507110516 36 227 15.0 20.0 0.00 0.28 0.00 58 1016.4
20260507110036 36 235 15.0 18.0 0.00 0.28 0.00 58 1016.4
20260507105520 37 230 14.0 20.0 0.00 0.28 0.00 57 1016.4
20260507105016 37 240 16.0 22.0 0.00 0.28 0.00 56 1016.5
20260507104530 37 238 17.0 22.0 0.00 0.28 0.00 56 1016.5
20260507104014 38 238 17.0 23.0 0.00 0.28 0.00 55 1016.6
20260507103517 37 238 16.0 23.0 0.00 0.28 0.00 57 1016.6
20260507103033 37 234 17.0 23.0 0.00 0.28 0.00 57 1016.7
20260507102515 37 232 17.0 23.0 0.00 0.28 0.00 58 1016.6
20260507102017 37 233 17.0 24.0 0.00 0.28 0.00 58 1016.7
20260507101530 37 240 18.0 24.0 0.00 0.28 0.00 57 1016.7
20260507101015 36 236 17.0 24.0 0.00 0.28 0.00 59 1016.7
20260507100515 36 236 18.0 23.0 0.00 0.28 0.00 59 1016.8
20260507100042 36 234 18.0 23.0 0.00 0.28 0.00 60 1016.8
20260507095515 36 224 17.0 23.0 0.00 0.28 0.00 60 1016.7
20260507095017 36 243 17.0 22.0 0.00 0.28 0.00 61 1016.8
20260507094531 36 237 17.0 23.0 0.00 0.28 0.00 62 1016.8
20260507094017 36 234 17.0 23.0 0.00 0.28 0.00 61 1016.8
20260507093516 36 238 19.0 26.0 0.00 0.28 0.00 60 1016.9
20260507093034 37 241 19.0 26.0 0.00 0.28 0.00 60 1016.8
20260507092517 37 238 17.0 23.0 0.00 0.28 0.00 59 1016.8
20260507092017 36 241 17.0 25.0 0.00 0.28 0.00 61 1016.9
20260507091539 36 241 17.0 25.0 0.00 0.28 0.00 60 1016.8
20260507091016 37 239 19.0 23.0 0.00 0.28 0.00 60 1016.8
20260507090516 36 229 18.0 23.0 0.00 0.28 0.00 63 1016.9
20260507090032 36 229 18.0 24.0 0.00 0.28 0.00 62 1016.8
20260507085515 36 235 18.0 24.0 0.00 0.28 0.00 62 1016.9
20260507085016 36 234 18.0 24.0 0.00 0.28 0.00 62 1016.9
20260507084547 36 234 17.0 22.0 0.00 0.28 0.00 62 1016.9
20260507084016 36 238 17.0 22.0 0.00 0.28 0.00 63 1016.9
20260507083515 35 229 17.0 22.0 0.00 0.28 0.00 66 1017.0
20260507083031 35 235 16.0 22.0 0.00 0.28 0.00 67 1017.0
20260507082516 35 222 16.0 22.0 0.00 0.28 0.00 67 1017.0
20260507082016 35 240 16.0 22.0 0.00 0.28 0.00 68 1017.1
20260507081530 35 234 17.0 23.0 0.00 0.28 0.00 68 1017.2
20260507081017 35 248 17.0 24.0 0.00 0.28 0.00 69 1017.1
20260507080515 35 219 19.0 25.0 0.00 0.28 0.00 68 1017.1
20260507080035 36 240 20.0 25.0 0.00 0.28 0.00 68 1017.2
20260507075517 35 227 19.0 25.0 0.00 0.28 0.00 69 1017.3
20260507075022 35 252 19.0 25.0 0.00 0.28 0.00 70 1017.3
20260507074532 35 242 19.0 26.0 0.00 0.28 0.00 72 1017.3
20260507074015 34 240 18.0 26.0 0.00 0.28 0.00 76 1017.5
20260507073514 32 239 15.0 20.0 0.00 0.28 0.00 78 1017.5
20260507073030 33 229 15.0 21.0 0.00 0.28 0.00 77 1017.6
20260507072516 34 235 15.0 21.0 0.00 0.28 0.00 75 1017.6
20260507072015 35 238 18.0 21.0 0.00 0.28 0.00 75 1017.6
20260507071537 34 232 17.0 21.0 0.00 0.28 0.00 76 1017.7
20260507071017 34 224 18.0 21.0 0.00 0.28 0.00 77 1017.7
20260507070517 34 236 17.0 21.0 0.00 0.28 0.00 78 1017.5
20260507070033 34 228 17.0 21.0 0.00 0.28 0.00 78 1017.6
20260507065515 34 239 17.0 21.0 0.00 0.28 0.00 79 1017.7
20260507065016 33 236 16.0 21.0 0.00 0.28 0.00 79 1017.8
20260507064533 33 239 15.0 19.0 0.00 0.28 0.00 79 1017.7
20260507064016 33 238 15.0 19.0 0.00 0.28 0.00 80 1017.7
20260507063518 33 240 15.0 19.0 0.00 0.28 0.00 79 1017.8
20260507063030 34 237 15.0 19.0 0.00 0.28 0.00 79 1017.8
20260507062512 33 240 13.0 19.0 0.00 0.28 0.00 79 1017.8
20260507062015 33 242 14.0 19.0 0.00 0.28 0.00 79 1017.9
20260507061536 34 242 14.0 19.0 0.00 0.28 0.00 80 1017.9
20260507061015 33 242 14.0 18.0 0.00 0.28 0.00 81 1017.9
20260507060516 33 238 14.0 17.0 0.00 0.28 0.00 83 1017.9
20260507060037 33 237 13.0 16.0 0.00 0.28 0.00 84 1018.0
20260507055516 31 240 11.0 16.0 0.00 0.28 0.28 86 1018.1
20260507055015 31 229 10.0 16.0 0.00 0.28 0.28 86 1018.1
20260507054539 31 218 12.0 16.0 0.00 0.28 0.28 87 1018.1
20260507054020 31 232 11.0 15.0 0.00 0.28 0.28 87 1018.0
20260507053517 31 217 10.0 15.0 0.00 0.28 0.28 87 1018.0
20260507053032 31 214 11.0 15.0 0.00 0.28 0.28 88 1018.1
20260507052515 31 211 9.0 15.0 0.00 0.28 0.28 87 1018.1
20260507052016 31 208 9.0 15.0 0.00 0.28 0.28 87 1018.1
20260507051532 31 223 10.0 17.0 0.00 0.28 0.28 87 1018.2
20260507051021 31 209 12.0 17.0 0.00 0.28 0.28 87 1018.2
20260507050515 31 214 12.0 16.0 0.00 0.28 0.28 87 1018.2
20260507050054 31 220 11.0 15.0 0.00 0.28 0.28 87 1018.2
20260507045515 31 209 11.0 18.0 0.00 0.28 0.28 87 1018.1
20260507045016 32 217 12.0 18.0 0.00 0.28 0.28 87 1018.1
20260507044545 31 207 12.0 17.0 0.00 0.28 0.28 87 1018.1
20260507044017 32 212 12.0 16.0 0.00 0.28 0.28 87 1018.1
20260507043516 32 212 12.0 16.0 0.00 0.28 0.28 87 1018.1
20260507043033 32 207 11.0 16.0 0.00 0.28 0.28 86 1018.2
20260507042516 32 218 12.0 18.0 0.00 0.28 0.28 87 1018.3
20260507042016 32 208 13.0 18.0 0.00 0.28 0.28 87 1018.3
20260507041533 32 215 12.0 17.0 0.00 0.28 0.28 87 1018.3
20260507041016 32 215 13.0 18.0 0.00 0.28 0.28 86 1018.3
20260507040516 32 204 13.0 18.0 0.00 0.28 0.28 86 1018.1
20260507040032 32 209 13.0 17.0 0.00 0.28 0.28 86 1018.1
20260507035515 32 217 13.0 18.0 0.00 0.28 0.28 86 1018.1
20260507035016 32 204 13.0 18.0 0.00 0.28 0.28 86 1018.0
20260507034535 33 202 12.0 17.0 0.00 0.28 0.28 86 1017.9
20260507034018 33 188 13.0 16.0 0.00 0.28 0.28 86 1017.9
20260507033515 32 201 12.0 15.0 0.00 0.28 0.28 86 1017.9
20260507033039 32 207 11.0 16.0 0.00 0.28 0.28 86 1017.9
20260507032516 32 207 11.0 16.0 0.00 0.28 0.28 86 1018.0
20260507032015 33 198 11.0 16.0 0.00 0.28 0.28 86 1017.9
20260507031533 33 181 11.0 16.0 0.00 0.28 0.28 86 1017.9
20260507031016 33 180 12.0 16.0 0.00 0.28 0.28 86 1017.9
20260507030518 32 183 10.0 16.0 0.00 0.28 0.28 85 1017.9
20260507030036 32 172 11.0 16.0 0.00 0.28 0.28 85 1017.9
20260507025516 32 178 11.0 16.0 0.00 0.29 0.28 84 1017.8
20260507025018 32 170 11.0 17.0 0.00 0.29 0.28 84 1017.8
20260507024540 33 177 10.0 17.0 0.00 0.29 0.28 84 1017.8
20260507024015 32 170 10.0 15.0 0.00 0.29 0.28 84 1017.9
20260507023515 32 190 10.0 14.0 0.00 0.29 0.28 85 1017.9
20260507023032 32 172 9.0 14.0 0.00 0.29 0.28 85 1017.8
20260507022516 32 182 8.0 12.0 0.00 0.29 0.28 86 1017.8
20260507022015 32 175 9.0 12.0 0.00 0.29 0.28 86 1017.9
20260507021546 32 182 9.0 13.0 0.00 0.29 0.28 86 1017.8
20260507021015 32 180 9.0 13.0 0.00 0.29 0.28 86 1017.7
20260507020516 32 172 9.0 12.0 0.00 0.29 0.28 87 1017.7
20260507020032 32 180 8.0 11.0 0.00 0.29 0.28 86 1017.8
20260507015515 32 175 8.0 11.0 0.00 0.29 0.28 86 1017.9
20260507015015 32 170 9.0 11.0 0.00 0.29 0.28 85 1017.9
20260507014532 32 165 8.0 10.0 0.00 0.29 0.28 84 1017.9
20260507014020 33 161 7.0 9.0 0.00 0.29 0.28 84 1017.9
20260507013517 33 158 6.0 9.0 0.00 0.29 0.28 83 1018.0
20260507013035 34 169 6.0 10.0 0.00 0.29 0.28 82 1018.0
20260507012517 34 172 7.0 10.0 0.00 0.29 0.28 82 1018.0
20260507012016 35 186 7.0 9.0 0.00 0.29 0.28 81 1018.1
20260507011536 35 180 6.0 10.0 0.00 0.29 0.28 81 1018.1
20260507011015 35 177 7.0 10.0 0.00 0.29 0.28 80 1018.2
20260507010518 35 187 5.0 11.0 0.00 0.29 0.28 80 1018.1
20260507010040 35 194 8.0 11.0 0.00 0.29 0.28 79 1018.2
20260507005516 35 180 8.0 10.0 0.00 0.29 0.28 79 1018.2
20260507005024 36 184 6.0 10.0 0.00 0.29 0.28 79 1018.2
20260507004530 36 207 6.0 10.0 0.00 0.29 0.28 79 1018.2
20260507004017 36 213 5.0 8.0 0.00 0.29 0.28 79 1018.3
20260507003515 36 228 4.0 7.0 0.00 0.29 0.28 78 1018.3
20260507003030 36 219 4.0 8.0 0.00 0.29 0.28 79 1018.2
20260507002518 36 177 5.0 8.0 0.00 0.29 0.28 79 1018.3
20260507002016 36 236 5.0 10.0 0.00 0.29 0.28 79 1018.3
20260507001533 36 200 4.0 10.0 0.00 0.29 0.28 79 1018.3
20260507001015 35 194 4.0 9.0 0.00 0.29 0.28 80 1018.3
20260507000522 35 185 5.0 9.0 0.00 0.29 0.28 81 1018.2
20260507000034 35 153 6.0 10.0 0.00 0.29 0.28 81 1018.3
20260506235516 35 211 6.0 10.0 0.00 0.29 0.28 79 1018.3
20260506235020 35 178 6.0 10.0 0.00 0.29 0.28 79 1018.3
20260506234530 35 191 6.0 10.0 0.00 0.29 0.28 79 1018.3
20260506234017 35 167 5.0 9.0 0.00 0.29 0.28 79 1018.4
20260506233516 35 213 4.0 9.0 0.00 0.29 0.28 81 1018.5
20260506233033 35 203 3.0 12.0 0.00 0.29 0.28 80 1018.6
20260506232520 35 211 7.0 12.0 0.00 0.29 0.28 80 1018.6
20260506232015 34 198 4.0 9.0 0.00 0.29 0.28 80 1018.5
20260506231532 34 196 4.0 9.0 0.00 0.29 0.28 81 1018.6
20260506231016 34 192 4.0 11.0 0.00 0.29 0.28 80 1018.5
20260506230515 34 165 7.0 12.0 0.00 0.29 0.28 82 1018.6
20260506230034 33 221 7.0 12.0 0.00 0.29 0.28 83 1018.6
20260506225518 33 194 5.0 14.0 0.00 0.34 0.28 81 1018.7
20260506225016 34 222 8.0 14.0 0.00 0.34 0.28 81 1018.7
20260506224533 34 241 8.0 11.0 0.00 0.34 0.28 82 1018.9
20260506224019 33 194 5.0 11.0 0.00 0.34 0.28 82 1018.9
20260506223516 33 223 8.0 11.0 0.00 0.34 0.28 81 1019.0
20260506223030 34 245 8.0 11.0 0.00 0.34 0.28 83 1019.1
20260506222516 34 217 6.0 11.0 0.00 0.34 0.28 84 1019.1
20260506222016 33 195 5.0 10.0 0.00 0.34 0.28 83 1019.1
20260506221530 33 229 5.0 9.0 0.00 0.34 0.28 85 1019.1
20260506221016 33 229 4.0 7.0 0.00 0.34 0.28 83 1019.2
20260506220516 33 227 2.0 4.0 0.00 0.34 0.28 83 1019.2
20260506220035 33 230 2.0 5.0 0.00 0.34 0.28 83 1019.2
20260506215515 33 232 2.0 7.0 0.00 0.36 0.28 82 1019.3
20260506215014 33 241 3.0 7.0 0.00 0.36 0.28 81 1019.2
20260506214532 34 252 3.0 7.0 0.00 0.36 0.28 81 1019.3
20260506214016 34 279 2.0 8.0 0.00 0.36 0.28 82 1019.4
20260506213515 34 238 4.0 8.0 0.00 0.36 0.28 83 1019.3
20260506213032 33 257 2.0 7.0 0.00 0.36 0.28 84 1019.4
20260506212516 34 267 3.0 6.0 0.00 0.36 0.28 83 1019.5
20260506212020 34 257 3.0 6.0 0.00 0.36 0.28 85 1019.5
20260506211533 34 317 2.0 4.0 0.00 0.36 0.28 85 1019.5
20260506211016 33 289 2.0 4.0 0.00 0.36 0.28 84 1019.6
20260506210516 33 294 2.0 4.0 0.00 0.36 0.28 83 1019.5
20260506210036 33 269 2.0 4.0 0.00 0.36 0.28 82 1019.7
20260506205515 34 263 2.0 4.0 0.00 0.37 0.28 80 1019.6
20260506205018 36 262 2.0 4.0 0.00 0.37 0.28 79 1019.7
20260506204547 39 338 1.0 3.0 0.00 0.37 0.28 82 1019.7
20260506204017 39 28 0.0 4.0 0.00 0.37 0.28 84 1019.8
20260506203518 39 349 2.0 5.0 0.00 0.37 0.28 81 1019.8
20260506203031 39 26 2.0 5.0 0.00 0.37 0.28 82 1019.8
20260506202515 40 29 3.0 6.0 0.00 0.37 0.28 83 1019.8
20260506202017 39 51 3.0 6.0 0.00 0.37 0.28 83 1019.8
20260506201534 39 34 3.0 7.0 0.01 0.37 0.28 83 1019.8
20260506201014 38 27 3.0 10.0 0.01 0.37 0.28 84 1019.8
20260506200516 38 51 5.0 10.0 0.01 0.37 0.28 83 1019.9
20260506200034 38 49 4.0 10.0 0.02 0.37 0.28 84 1019.9
20260506195516 38 34 7.0 10.0 0.02 0.38 0.28 83 1020.0
20260506195019 38 20 7.0 10.0 0.02 0.38 0.28 84 1020.0
20260506194534 38 19 6.0 10.0 0.03 0.38 0.28 85 1019.9
20260506194015 38 29 7.0 10.0 0.03 0.38 0.28 86 1019.9
20260506193515 37 36 6.0 10.0 0.03 0.38 0.28 86 1019.9
20260506193030 37 34 6.0 10.0 0.04 0.38 0.28 87 1020.0
20260506192516 37 29 7.0 11.0 0.04 0.38 0.28 88 1020.1
20260506192015 37 19 7.0 11.0 0.05 0.38 0.28 89 1020.0
20260506191530 36 19 8.0 10.0 0.05 0.37 0.27 89 1020.0
20260506191015 36 24 8.0 11.0 0.05 0.37 0.27 90 1020.1
20260506190515 36 28 8.0 11.0 0.06 0.37 0.27 91 1020.1
20260506190030 35 24 9.0 11.0 0.06 0.36 0.26 92 1020.1
20260506185516 34 26 8.0 11.0 0.06 0.38 0.26 92 1020.0
20260506185016 34 20 8.0 11.0 0.07 0.38 0.26 92 1020.2
20260506184530 34 27 9.0 12.0 0.07 0.37 0.25 92 1020.3
20260506184016 34 33 10.0 13.0 0.07 0.37 0.25 92 1020.2
20260506183516 34 31 10.0 13.0 0.08 0.37 0.25 92 1020.4
20260506183033 34 33 11.0 15.0 0.08 0.36 0.24 93 1020.2
20260506182516 34 45 11.0 15.0 0.09 0.36 0.24 94 1020.2
20260506182015 33 42 12.0 16.0 0.08 0.35 0.23 94 1020.2
20260506181532 33 50 12.0 16.0 0.08 0.34 0.22 94 1020.2
20260506181019 32 57 13.0 16.0 0.08 0.33 0.21 94 1020.1
20260506180521 32 45 12.0 17.0 0.09 0.33 0.21 94 1020.2
20260506180030 32 55 13.0 17.0 0.09 0.32 0.20 95 1020.2
20260506175515 31 56 14.0 18.0 0.10 0.33 0.20 95 1020.1
20260506175015 31 49 14.0 19.0 0.10 0.32 0.19 95 1020.0
20260506174531 31 50 15.0 19.0 0.10 0.31 0.18 95 1020.1
20260506174020 31 43 14.0 18.0 0.10 0.31 0.18 95 1020.1
20260506173516 31 46 13.0 19.0 0.10 0.30 0.17 95 1020.1
20260506173033 31 44 15.0 19.0 0.09 0.29 0.16 95 1020.0
20260506172515 31 40 15.0 20.0 0.08 0.28 0.15 95 1019.8
20260506172016 31 41 16.0 20.0 0.07 0.27 0.14 96 1019.7
20260506171540 31 55 15.0 20.0 0.07 0.27 0.14 95 1019.7
20260506171016 31 58 17.0 21.0 0.07 0.26 0.13 95 1019.4
20260506170517 31 69 16.0 21.0 0.06 0.25 0.12 95 1019.3
20260506170035 32 52 14.0 19.0 0.05 0.24 0.11 96 1019.2
20260506165518 32 44 15.0 19.0 0.05 0.24 0.10 96 1019.1
20260506165016 33 38 11.0 18.0 0.04 0.23 0.09 96 1019.2
20260506164530 33 17 10.0 13.0 0.04 0.22 0.08 96 1019.3
20260506164017 33 15 10.0 13.0 0.03 0.21 0.07 96 1019.4
20260506163518 32 13 9.0 13.0 0.03 0.21 0.07 96 1019.4
20260506163032 32 5 10.0 13.0 0.04 0.21 0.07 96 1019.2
20260506162515 32 21 9.0 12.0 0.04 0.21 0.07 96 1019.2
20260506162015 32 13 9.0 13.0 0.04 0.21 0.07 96 1019.1
20260506161539 32 18 10.0 13.0 0.07 0.21 0.07 96 1019.1
20260506161016 32 15 10.0 12.0 0.06 0.20 0.06 96 1019.1
20260506160518 31 11 9.0 12.0 0.06 0.20 0.06 96 1019.2
20260506160043 31 5 10.0 13.0 0.06 0.20 0.06 96 1019.2
20260506155515 31 9 9.0 13.0 0.05 0.20 0.05 96 1019.2
20260506155016 31 9 10.0 13.0 0.05 0.20 0.05 96 1019.2
20260506154533 31 11 9.0 13.0 0.04 0.19 0.04 96 1019.2
20260506154016 31 9 8.0 11.0 0.04 0.19 0.04 97 1019.0
20260506153514 31 5 7.0 12.0 0.04 0.19 0.04 97 1019.0
20260506153032 31 15 8.0 13.0 0.03 0.18 0.03 97 1018.8
20260506152515 31 11 9.0 14.0 0.03 0.18 0.03 96 1018.7
20260506152015 31 20 10.0 14.0 0.03 0.18 0.03 96 1018.6
20260506151536 31 24 8.0 11.0 0.00 0.15 0.00 97 1018.6
20260506151019 31 13 8.0 11.0 0.00 0.15 0.00 96 1018.6
20260506150519 31 5 9.0 11.0 0.00 0.15 0.00 96 1018.6
20260506150033 31 5 5.0 9.0 0.00 0.15 0.00 96 1018.6
20260506145515 31 24 5.0 9.0 0.00 0.17 0.00 97 1018.5
20260506145019 31 37 7.0 9.0 0.00 0.17 0.00 97 1018.4
20260506144531 31 24 5.0 8.0 0.00 0.17 0.00 97 1018.5